DW4207 Weather Reports


Display with metric or nautical units.
time (UTC)temp
F
wind
direction
speed
MPH
gust
MPH
rain 1hr
in
rain 24hr
in
rain mn
in
humidity
%
barometer
mb
20260505003025 71 175 6.0 15.0 0.00 0.00 0.00 51 1002.2
20260505002004 71 182 6.0 15.0 0.00 0.00 0.00 50 1002.2
20260505001004 72 178 6.0 13.0 0.00 0.00 0.00 49 1002.1
20260505000004 72 188 5.0 22.0 0.00 0.00 0.00 49 1002.2
20260504235004 72 192 8.0 22.0 0.00 0.00 0.00 47 1002.4
20260504234004 73 195 8.0 19.0 0.00 0.00 0.00 46 1002.6
20260504233004 73 205 9.0 19.0 0.00 0.00 0.00 45 1002.8
20260504232004 74 188 7.0 15.0 0.00 0.00 0.00 45 1002.9
20260504231004 74 196 10.0 22.0 0.00 0.00 0.00 44 1003.1
20260504230004 74 195 8.0 22.0 0.00 0.00 0.00 45 1003.3
20260504225004 74 196 8.0 16.0 0.00 0.00 0.00 47 1003.5
20260504224004 74 201 7.0 19.0 0.00 0.00 0.00 46 1003.6
20260504223004 73 185 8.0 23.0 0.00 0.00 0.00 52 1003.6
20260504222025 73 156 7.0 23.0 0.00 0.00 0.00 55 1003.5
20260504221004 73 187 7.0 14.0 0.00 0.00 0.00 57 1003.6
20260504220025 73 176 6.0 20.0 0.00 0.00 0.00 59 1003.9
20260504215004 71 166 6.0 15.0 0.00 0.00 0.00 60 1004.1
20260504214004 70 158 6.0 12.0 0.00 0.00 0.00 60 1003.9
20260504213004 71 167 8.0 19.0 0.00 0.00 0.00 60 1004.0
20260504212004 71 158 8.0 16.0 0.00 0.00 0.00 60 1004.1
20260504211025 71 167 7.0 16.0 0.00 0.00 0.00 62 1004.3
20260504210004 69 164 5.0 12.0 0.00 0.00 0.00 64 1004.4
20260504205004 67 172 6.0 12.0 0.00 0.00 0.00 67 1004.9
20260504204025 66 165 6.0 13.0 0.00 0.00 0.00 68 1005.0
20260504203004 66 164 7.0 15.0 0.00 0.00 0.00 68 1005.1
20260504202025 66 173 5.0 15.0 0.00 0.00 0.00 67 1005.2
20260504201004 66 169 7.0 15.0 0.00 0.00 0.00 67 1004.8
20260504200004 67 197 8.0 20.0 0.00 0.00 0.00 67 1005.2
20260504195004 66 178 6.0 14.0 0.00 0.00 0.00 69 1005.3
20260504194004 64 161 4.0 8.0 0.00 0.00 0.00 71 1005.1
20260504193025 64 223 2.0 6.0 0.00 0.00 0.00 71 1005.5
20260504192003 64 202 3.0 10.0 0.00 0.00 0.00 68 1005.5
20260504191004 66 210 6.0 11.0 0.00 0.00 0.00 64 1005.7
20260504190004 67 188 5.0 13.0 0.00 0.00 0.00 59 1005.9
20260504185004 67 188 9.0 21.0 0.00 0.00 0.00 58 1005.6
20260504184025 67 192 6.0 14.0 0.00 0.00 0.00 60 1005.9
20260504183004 67 210 8.0 18.0 0.00 0.00 0.00 60 1006.0
20260504182004 68 211 9.0 21.0 0.00 0.00 0.00 60 1006.3
20260504181004 68 199 7.0 20.0 0.00 0.00 0.00 60 1006.3
20260504180004 69 234 10.0 21.0 0.00 0.00 0.00 60 1006.3
20260504175004 69 214 11.0 21.0 0.00 0.00 0.00 58 1006.1
20260504174004 70 206 9.0 22.0 0.00 0.00 0.00 57 1006.0
20260504173004 71 192 7.0 15.0 0.00 0.00 0.00 57 1005.8
20260504172004 71 190 9.0 17.0 0.00 0.00 0.00 54 1006.0
20260504171004 71 176 6.0 17.0 0.00 0.00 0.00 57 1005.5
20260504151004 69 183 6.0 15.0 0.00 0.00 0.00 60 1007.1
20260504141004 63 217 6.0 14.0 0.00 0.00 0.00 67 1007.6
20260504082003 50 163 2.0 4.0 0.00 0.00 0.00 74 1008.6
20260504081004 50 159 0.0 4.0 0.00 0.00 0.00 74 1008.6
20260504050003 55 157 4.0 10.0 0.00 0.00 0.00 62 1010.1
20260504045003 55 154 4.0 8.0 0.00 0.00 0.00 62 1010.1
20260504044003 56 161 4.0 9.0 0.00 0.00 0.00 61 1010.1
20260504043004 56 159 4.0 11.0 0.00 0.00 0.00 61 1010.2
20260504042004 56 164 4.0 8.0 0.00 0.00 0.00 61 1010.3
20260504041024 56 158 4.0 9.0 0.00 0.00 0.00 60 1010.3
20260504040004 56 148 5.0 8.0 0.00 0.00 0.00 59 1010.4
20260504035003 57 165 5.0 10.0 0.00 0.00 0.00 59 1010.5
20260504034003 57 160 5.0 9.0 0.00 0.00 0.00 59 1010.7
20260504033004 56 162 4.0 8.0 0.00 0.00 0.00 59 1010.7
20260504032024 57 158 5.0 10.0 0.00 0.00 0.00 59 1010.7
20260504031004 56 160 4.0 9.0 0.00 0.00 0.00 59 1010.7
20260504030003 56 157 5.0 10.0 0.00 0.00 0.00 59 1010.8
20260504025024 57 157 4.0 10.0 0.00 0.00 0.00 59 1010.8
20260504024004 57 159 4.0 8.0 0.00 0.00 0.00 59 1010.8
20260504023004 57 161 4.0 9.0 0.00 0.00 0.00 58 1010.8
20260504022003 57 156 5.0 11.0 0.00 0.00 0.00 58 1010.7
20260504021003 57 159 5.0 11.0 0.00 0.00 0.00 58 1010.7
20260504020004 57 160 6.0 11.0 0.00 0.00 0.00 58 1010.6
20260504015003 57 158 4.0 8.0 0.00 0.00 0.00 58 1010.7
20260504014024 58 160 5.0 10.0 0.00 0.00 0.00 57 1010.6
20260504013003 58 159 4.0 11.0 0.00 0.00 0.00 57 1010.6
20260504012004 58 164 4.0 9.0 0.00 0.00 0.00 57 1010.7
20260504011004 58 171 3.0 8.0 0.00 0.00 0.00 58 1010.7
20260504010003 58 163 3.0 7.0 0.00 0.00 0.00 58 1010.7
20260504005004 58 164 3.0 9.0 0.00 0.00 0.00 57 1010.8
20260504004003 58 182 3.0 10.0 0.00 0.00 0.00 57 1010.8